Location: Piolenc
(44.1794°N, 4.7641°E)
Time: 04:37:51
(UTC+00:00)

Cosmos 1184 Rocket - Pass Details

Date: 27 January 2021
Orbit: 404 x 416 km, 81.2° (Epoch: 27 February)

Event Time Altitude Azimuth Distance (km) Brightness Sun altitude
Rises 06:14:31 0° 356° (N) 2,370 6.4 -9.1°
Reaches altitude 10° 06:16:38 10° 4° (N) 1,503 5.4 -8.7°
Maximum altitude 06:19:45 40° 76° (ENE) 630 4.2 -8.2°
Drops below altitude 10° 06:22:51 10° 148° (SSE) 1,494 6.4 -7.7°
Sets 06:24:56 0° 156° (SSE) 2,353 7.2 -7.3°
